Time,TemperatureF,DewpointF,PressureIn,WindDirection,WindDirectionDegrees,WindSpeedMPH,WindSpeedGustMPH,Humidity,HourlyPrecipIn,Conditions,Clouds,dailyrainin,SoftwareType,DateUTC
2013-08-28 00:00:00,72.8,62.8,29.68,NNW,347,1.0,1.0,71,0.00,,,0.00,Wunderground v.1.15,2013-08-28 06:00:00,
2013-08-28 00:30:00,72.3,62.8,29.69,West,277,1.0,1.0,72,0.00,,,0.00,Wunderground v.1.15,2013-08-28 06:30:00,
2013-08-28 01:00:00,71.5,63.2,29.70,NNW,341,1.0,1.0,75,0.00,,,0.00,Wunderground v.1.15,2013-08-28 07:00:00,
2013-08-28 01:30:00,70.6,63.4,29.70,WSW,257,0.0,0.0,78,0.00,,,0.00,Wunderground v.1.15,2013-08-28 07:30:00,
2013-08-28 02:00:00,70.3,63.5,29.70,NW,304,2.0,2.0,79,0.00,,,0.00,Wunderground v.1.15,2013-08-28 08:00:00,
2013-08-28 02:30:00,70.3,63.5,29.69,NNW,333,1.0,4.0,79,0.00,,,0.00,Wunderground v.1.15,2013-08-28 08:30:00,
2013-08-28 03:00:00,70.3,63.5,29.70,WNW,284,0.0,2.0,79,0.00,,,0.00,Wunderground v.1.15,2013-08-28 09:00:00,
2013-08-28 03:30:00,69.9,63.4,29.70,NW,309,0.0,0.0,80,0.00,,,0.00,Wunderground v.1.15,2013-08-28 09:30:00,
2013-08-28 04:00:00,68.9,63.2,29.71,West,281,0.0,0.0,82,0.00,,,0.00,Wunderground v.1.15,2013-08-28 10:00:00,
2013-08-28 04:30:00,68.9,63.5,29.70,WSW,258,0.0,0.0,83,0.00,,,0.00,Wunderground v.1.15,2013-08-28 10:30:00,
2013-08-28 05:00:00,68.1,63.1,29.70,WNW,285,0.0,0.0,84,0.00,,,0.00,Wunderground v.1.15,2013-08-28 11:00:00,
2013-08-28 05:30:00,67.8,63.1,29.70,WSW,252,0.0,0.0,85,0.00,,,0.00,Wunderground v.1.15,2013-08-28 11:30:00,
2013-08-28 06:00:00,68.1,63.4,29.71,WNW,297,0.0,0.0,85,0.00,,,0.00,Wunderground v.1.15,2013-08-28 12:00:00,
2013-08-28 06:30:00,67.8,63.1,29.72,West,275,0.0,0.0,85,0.00,,,0.00,Wunderground v.1.15,2013-08-28 12:30:00,
2013-08-28 07:00:00,68.8,63.8,29.73,West,275,0.0,0.0,84,0.00,,,0.00,Wunderground v.1.15,2013-08-28 13:00:00,
2013-08-28 07:30:00,69.8,64.4,29.73,West,275,0.0,0.0,83,0.00,,,0.00,Wunderground v.1.15,2013-08-28 13:30:00,
2013-08-28 08:00:00,70.4,64.3,29.73,WNW,301,0.0,0.0,81,0.00,,,0.00,Wunderground v.1.15,2013-08-28 14:00:00,
2013-08-28 08:30:00,71.1,64.3,29.73,NW,313,0.0,0.0,79,0.00,,,0.00,Wunderground v.1.15,2013-08-28 14:30:00,
2013-08-28 09:00:00,72.3,63.9,29.73,ENE,58,0.0,0.0,75,0.00,,,0.00,Wunderground v.1.15,2013-08-28 15:00:00,
2013-08-28 09:30:00,72.8,64.4,29.74,NE,37,0.0,0.0,75,0.00,,,0.00,Wunderground v.1.15,2013-08-28 15:30:00,
2013-08-28 10:00:00,73.0,65.7,29.74,ESE,111,0.0,0.0,78,0.00,,,0.00,Wunderground v.1.15,2013-08-28 16:00:00,
2013-08-28 10:30:00,73.3,66.0,29.76,ESE,114,1.0,1.0,78,0.00,,,0.00,Wunderground v.1.15,2013-08-28 16:30:00,
2013-08-28 11:00:00,74.7,66.2,29.76,SE,126,4.0,4.0,75,0.00,,,0.00,Wunderground v.1.15,2013-08-28 17:00:00,
2013-08-28 11:30:00,75.4,66.1,29.76,ESE,103,1.0,1.0,73,0.00,,,0.00,Wunderground v.1.15,2013-08-28 17:30:00,
2013-08-28 12:00:00,76.7,66.6,29.76,SE,128,3.0,3.0,71,0.00,,,0.00,Wunderground v.1.15,2013-08-28 18:00:00,
2013-08-28 12:30:00,79.8,67.0,29.75,ENE,77,0.0,0.0,65,0.00,,,0.00,Wunderground v.1.15,2013-08-28 18:30:00,
2013-08-28 13:00:00,82.0,67.2,29.74,East,89,2.0,2.0,61,0.00,,,0.00,Wunderground v.1.15,2013-08-28 19:00:00,
2013-08-28 13:30:00,81.2,68.3,29.73,East,79,8.0,8.0,65,0.00,,,0.00,Wunderground v.1.15,2013-08-28 19:30:00,
2013-08-28 14:00:00,83.8,67.9,29.74,ESE,118,6.0,11.0,59,0.00,,,0.00,Wunderground v.1.15,2013-08-28 20:00:00,
2013-08-28 14:30:00,83.2,66.9,29.74,SE,128,9.0,9.0,58,0.00,,,0.00,Wunderground v.1.15,2013-08-28 20:30:00,
2013-08-28 15:00:00,84.9,65.9,29.73,SE,129,7.0,7.0,53,0.00,,,0.00,Wunderground v.1.15,2013-08-28 21:00:00,
2013-08-28 15:30:00,85.1,65.5,29.73,ESE,108,6.0,7.0,52,0.00,,,0.00,Wunderground v.1.15,2013-08-28 21:30:00,
2013-08-28 16:00:00,86.5,64.5,29.71,SE,133,6.0,6.0,48,0.00,,,0.00,Wunderground v.1.15,2013-08-28 22:00:00,
2013-08-28 16:30:00,87.6,64.3,29.70,SE,128,5.0,8.0,46,0.00,,,0.00,Wunderground v.1.15,2013-08-28 22:30:00,
2013-08-28 17:00:00,88.0,62.0,29.70,SSE,168,4.0,10.0,42,0.00,,,0.00,Wunderground v.1.15,2013-08-28 23:00:00,
2013-08-28 17:30:00,88.6,59.7,29.70,South,176,3.0,3.0,38,0.00,,,0.00,Wunderground v.1.15,2013-08-28 23:30:00,
2013-08-28 18:00:00,88.6,59.7,29.70,SSE,153,3.0,11.0,38,0.00,,,0.00,Wunderground v.1.15,2013-08-29 00:00:00,
2013-08-28 18:30:00,87.8,63.8,29.70,South,171,5.0,9.0,45,0.00,,,0.00,Wunderground v.1.15,2013-08-29 00:30:00,
2013-08-28 19:00:00,86.7,64.1,29.69,SE,130,1.0,1.0,47,0.00,,,0.00,Wunderground v.1.15,2013-08-29 01:00:00,
2013-08-28 19:30:00,85.1,64.9,29.70,SE,139,1.0,1.0,51,0.00,,,0.00,Wunderground v.1.15,2013-08-29 01:30:00,
2013-08-28 20:00:00,83.2,65.4,29.71,SSE,158,0.0,0.0,55,0.00,,,0.00,Wunderground v.1.15,2013-08-29 02:00:00,
2013-08-28 20:30:00,81.6,64.9,29.71,South,179,0.0,0.0,57,0.00,,,0.00,Wunderground v.1.15,2013-08-29 02:30:00,
2013-08-28 21:00:00,80.5,64.9,29.71,SE,143,0.0,0.0,59,0.00,,,0.00,Wunderground v.1.15,2013-08-29 03:00:00,
2013-08-28 21:30:00,80.1,65.0,29.72,SE,143,0.0,0.0,60,0.00,,,0.00,Wunderground v.1.15,2013-08-29 03:30:00,
2013-08-28 22:00:00,80.1,56.2,29.75,SW,218,6.0,7.0,44,0.00,,,0.00,Wunderground v.1.15,2013-08-29 04:00:00,
2013-08-28 22:30:00,76.7,56.7,29.73,SSW,203,2.0,2.0,50,0.00,,,0.00,Wunderground v.1.15,2013-08-29 04:30:00,
2013-08-28 23:00:00,73.3,57.6,29.73,SSE,164,3.0,3.0,58,0.00,,,0.00,Wunderground v.1.15,2013-08-29 05:00:00,
2013-08-28 23:30:00,73.3,57.6,29.70,SE,143,0.0,0.0,58,0.00,,,0.00,Wunderground v.1.15,2013-08-29 05:30:00,